Regional Weather Roundup
Issued by NWS

Home | Current Version | Previous Version | Graphics & Text | Print | Product List | Glossary On
Versions: 1 2 3 4 5 6 7 8 9 10 11 12 13 14 15 16 17 18 19 20 21 22 23 24 25 26 27 28 29 30 31 32 33 34 35 36 37 38 39 40 41 42 43 44 45 46 47 48 49 50
000
ASUS43 KBIS 182001
RWRND

NORTH DAKOTA REGIONAL WEATHER ROUNDUP
NATIONAL WEATHER SERVICE BISMARCK ND
300 PM CDT SAT APR 18 2015

NOTE: "FAIR" INDICATES FEW OR NO CLOUDS BELOW 12,000 FEET WITH NO
SIGNIFICANT WEATHER AND/OR OBSTRUCTIONS TO VISIBILITY.


NDZ001>003-009>011-017-182100-
NORTHWEST NORTH DAKOTA

CITY           SKY/WX    TMP DP  RH WIND       PRES   REMARKS
WILLISTON      CLOUDY    63  37  38 N25G32    29.89R
MINOT          MOSUNNY   71  25  17 SE12G17   29.86F
MINOT AFB      MOSUNNY   72  28  19 SW13G23   29.85F
$$

NDZ018>021-031>035-040>046-182100-
SOUTHWEST NORTH DAKOTA

CITY           SKY/WX    TMP DP  RH WIND       PRES   REMARKS
BISMARCK       CLOUDY    63  31  30 CALM      29.94F
DICKINSON      PTSUNNY   67  37  33 S7        29.89F
GARRISON         N/A     71  28  20 SW9       29.89F
HETTINGER ARPT CLOUDY    59  36  42 SE7       29.95F
$$

NDZ004>008-012>016-024-026-027-054-182100-
NORTHEAST NORTH DAKOTA

CITY           SKY/WX    TMP DP  RH WIND       PRES   REMARKS
GRAND FORKS    CLOUDY    68  25  19 S9        29.96F
GRND FRKS AFB  PTSUNNY   68  25  20 VRB6      29.96F
DEVILS LAKE    MOSUNNY   66  28  24 SE10      29.94F
$$

NDZ022-023-025-028>030-036>039-047>053-182100-
SOUTHEAST NORTH DAKOTA

CITY           SKY/WX    TMP DP  RH WIND       PRES   REMARKS
FARGO          PTSUNNY   72  29  20 E13G20    29.95F
JAMESTOWN      CLOUDY    65  28  24 E8        29.94F
$$




USA.gov is the U.S. government's official web portal to all federal, state and local government web resources and services.